NOAA NWS Hourly Roundups by Site

Regional Weather Roundup for Green Bay, WI

To Select Another Site Choose from List

Select Site:  

000
ASUS43 KGRB 060011
RWRGRB

NORTH-CENTRAL AND NORTHEAST WISCONSIN REGIONAL WEATHER ROUNDUP
NATIONAL WEATHER SERVICE GREEN BAY WI
700 PM CDT THU AUG 05 2021

WIZ005-009-010>012-018-019-060100-
NORTH CENTRAL WISCONSIN

CITY           SKY/WX    TMP DP  RH WIND       PRES   REMARKS
IRONWOOD       CLOUDY    67  62  84 S15G25    29.86F
MANITOWISH WTR CLOUDY    65  61  87 SW13G21   29.93S
ARBOR VITAE    CLOUDY    65  51  60 S14G23    29.93F
EAGLE RIVER    CLOUDY    64  61  92 S8        29.94F
LAND O LAKES   CLOUDY    66  59  80 S9        29.95F
RHINELANDER    CLOUDY    64  61  90 SW9G20    29.96F
PHILLIPS       CLOUDY    64  64 100 S9G18     29.92F
ANTIGO         CLOUDY    64  61  88 SW9       29.98F
TOMAHAWK       CLOUDY    62  60  94 CALM      29.96F
MERRILL        CLOUDY    65  64  97 S7        29.96F
$$

WIZ013-073-060100-
NORTHEAST WISCONSIN

CITY           SKY/WX    TMP DP  RH WIND       PRES   REMARKS
IRON MOUNTAIN  CLOUDY    68  63  84 SW7       29.94F
MARINETTE      FAIR      76  65  68 SW8       29.94F
OCONTO         PTSUNNY   76  62  60 SW5       29.94S
$$

WIZ017-030-035>037-045-060100-
CENTRAL WISCONSIN

CITY           SKY/WX    TMP DP  RH WIND       PRES   REMARKS
MEDFORD        CLOUDY    63  62  97 S10       29.95F
WAUSAU         CLOUDY    69  60  73 S15G23    29.95F
MOSINEE        CLOUDY    64  61  88 S12       29.98F
MARSHFIELD     CLOUDY    66  60  81 S12G18    29.96F
WISC RAPIDS    CLOUDY    67  61  81 S9        29.97F
STEVENS POINT  CLOUDY    63  62  95 S6        29.98F
WAUPACA        PTSUNNY   72  60  65 SW7       29.99F
SHAWANO        CLOUDY    74  62  64 SW12      29.97S
CLINTONVILLE   CLOUDY    72  60  66 SW9       29.98S
WAUTOMA        NOT AVBL
$$

WIZ038-039-048-051-060100-
FOX VALLEY

CITY           SKY/WX    TMP DP  RH WIND       PRES   REMARKS
NWS GREEN BAY  PTSUNNY   77  61  57 W10G18    29.97R
APPLETON       CLOUDY    72  61  68 SW9       29.98S
OSHKOSH        CLOUDY    73  62  68 VRB5      29.99F
FOND DU LAC    CLOUDY    76  60  57 W6        30.00S
$$

WIZ022-050-052-060100-
EAST CENTRAL WISCONSIN

CITY           SKY/WX    TMP DP  RH WIND       PRES   REMARKS
EPHRAIM        FAIR      73  62  68 S8G17     29.95F
WASHINGTON ISL FAIR      71  66  85 S10G17    29.95F
STURGEON BAY   FAIR      74  65  73 S10       29.97S
MANITOWOC      FAIR      73  66  78 S10       29.98F
SHEBOYGAN      FAIR      77  62  59 S7        29.98F
$$

LMZ563-521-522-541>543-060100-
LAKESHORE

STATION/POSITION TIME  TEMP    WIND        PRES    VSBY  WAVE
                       AIR SEA DIR/SP/G                  HT/PER
                 (UTC) (F)     (DEG/KT/KT) (MB)    (MI)  (FT/S)
SHEBOYGAN LKSHOR 0000   74     180/ 17/ 19   N/A
KEWAUNEE LKSHORE 2330   73     180/ 12/ 15 1014.0F
NORTHPORT PIER   2340   74     140/  6/ 13 1014.9F
N MID LAKE BUOY  2350   70 69  190/ 14/ 16 1014.6F         2/ 4
S GREEN BAY BUOY 2330   82 74  200/ 14/ 16 1013.1F         2/ 4
SISTER BAY LKSHO 0002   76     180/ 16/ 17   N/A
CHAMBERS ISLAND  2340   76     110/  5/ 10   N/A
MENOMINEE LKSHOR 2330   78 74  200/  5/  9 1012.9F
$$


 

View Past Reports for Green Bay, WI.

Products Courtesy of NOAA-NWS
NWS Information Parsing Script by Ken True at Saratoga Weather - Script by SE Lincoln Weather.